Flag for U.S.A. Weather past 2 weeks in Pullman, Washington, U.S.A.

Now
95 °F

Sunny.


Feels Like: 91 °F
Forecast: 58 / 92 °F
Wind: 6 mph from Northwest

Location: Pullman / Moscow Regional Airport

Current Time: Jul 30, 2014 at 7:12:03 PM

Latest Report: Jul 30, 2014 at 5:53 PM


Visibility: 10 mi

Pressure: 29.98 "Hg

Humidity: 14%

Dew point: 39 °F

Location of PullmanLocation

Historic Weather in Pullman — Graph

°F

Pullman temperature yesterday

Maximum temperature yesterday: 98 °F (at 4:53 PM)
Minimum temperature yesterday: 54 °F (at 5:53 AM)
Average temperature yesterday: 77 °F

Past Weeks' High & Low Weather Summary

 TemperatureHumidityPressure
High98 °F (Jul 29, 4:53 PM)90% (Jul 23, 12:53 AM)30.19 "Hg (Jul 23, 12:53 AM)
Low46 °F (Jul 25, 4:53 AM)11% (Jul 29, 4:53 PM)29.75 "Hg (Jul 17, 7:53 PM)
Average71 °F46%29.99 "Hg
* Reported Jul 15 5:53 PM — Jul 30 5:53 PM, Pullman, Weather by CustomWeather, © 2014

Note: Actual official high and low records may vary slightly from our data, if they occured in-between our weather recording intervals... More about our weather records

Advertising

Pullman weather history for previous 24 hours

 ConditionsComfort  
Time TempWeatherWind HumidityBarometerVisibility
5:53 PM
Jul 30
95 °FSunny.6 mph14%29.98 "Hg10 mi
4:53 PM95 °FSunny.6 mph14%29.99 "Hg10 mi
3:53 PM95 °FSunny.9 mph14%30.00 "Hg10 mi
2:53 PM95 °FSunny.12 mph14%30.02 "Hg10 mi
1:53 PM92 °FSunny.3 mph16%30.05 "Hg10 mi
12:53 PM91 °FSunny.7 mph19%30.06 "Hg10 mi
11:53 AM87 °FSunny.7 mph22%30.06 "Hg10 mi
10:53 AM85 °FSunny.No wind24%30.06 "Hg10 mi
9:53 AM82 °FSunny.3 mph27%30.06 "Hg10 mi
8:53 AM80 °FSunny.3 mph30%30.06 "Hg10 mi
7:53 AM71 °FSunny.No wind42%30.05 "Hg10 mi
6:53 AM57 °FSunny.No wind69%30.05 "Hg10 mi
5:53 AM58 °FClear.No wind60%30.03 "Hg10 mi
4:53 AM55 °FClear.No wind67%30.01 "Hg10 mi
3:53 AM59 °FClear.No wind56%30.01 "Hg10 mi
2:53 AM60 °FClear.3 mph56%30.00 "Hg10 mi
1:53 AM59 °FClear.No wind62%30.01 "Hg10 mi
12:53 AM59 °FClear.No wind62%30.00 "Hg10 mi
11:53 PM
Jul 29
63 °FClear.No wind56%29.99 "Hg10 mi
10:53 PM68 °FClear.No wind42%29.98 "Hg10 mi
9:53 PM67 °FClear.No wind47%29.98 "Hg9 mi
8:53 PM72 °FSunny.No wind46%29.97 "Hg10 mi
7:53 PM87 °FSunny.No wind23%29.95 "Hg10 mi
Weather by CustomWeather, © 2014

See weather overviewHow to use our weather pages